DW7229 Weather Reports


Display with metric or nautical units.
time (UTC)temp
F
wind
direction
speed
MPH
gust
MPH
rain 1hr
in
rain 24hr
in
rain mn
in
humidity
%
barometer
mb
20260504200527 75 252 6.0 8.0 0.00 0.00 0.00 24 1005.6
20260504195531 75 257 5.0 12.0 0.00 0.00 0.00 23 1005.6
20260504194516 75 262 6.0 12.0 0.00 0.00 0.00 23 1005.5
20260504193519 75 262 7.0 13.0 0.00 0.00 0.00 23 1005.6
20260504192522 74 308 5.0 8.0 0.00 0.00 0.00 23 1005.6
20260504191525 73 223 7.0 13.0 0.00 0.00 0.00 24 1005.6
20260504190529 74 207 6.0 10.0 0.00 0.00 0.00 23 1005.6
20260504185532 74 249 5.0 13.0 0.00 0.00 0.00 23 1005.8
20260504184517 73 206 5.0 9.0 0.00 0.00 0.00 23 1006.0
20260504183520 73 281 7.0 12.0 0.00 0.00 0.00 24 1006.1
20260504182524 72 193 4.0 7.0 0.00 0.00 0.00 24 1006.3
20260504181527 72 228 8.0 12.0 0.00 0.00 0.00 24 1006.3
20260504180531 72 289 7.0 10.0 0.00 0.00 0.00 24 1006.2
20260504175516 72 228 6.0 12.0 0.00 0.00 0.00 25 1006.2
20260504174519 72 256 7.0 12.0 0.00 0.00 0.00 25 1006.3
20260504173522 71 229 7.0 11.0 0.00 0.00 0.00 25 1006.7
20260504172526 71 241 7.0 12.0 0.00 0.00 0.00 25 1006.5
20260504171543 70 279 5.0 11.0 0.00 0.00 0.00 26 1006.6
20260504170520 70 298 10.0 19.0 0.00 0.00 0.00 25 1006.7
20260504150517 66 180 0.0 1.0 0.00 0.00 0.00 32 1007.7
20260504140519 63 214 2.0 7.0 0.00 0.00 0.00 36 1008.4
20260504130515 57 231 3.0 8.0 0.00 0.00 0.00 42 1009.0
20260504110524 47 0.0 0.0 0.00 0.00 0.00 53 1009.7
20260504100545 44 0.0 0.0 0.00 0.00 0.00 56 1009.5
20260504081525 44 0.0 0.0 0.00 0.00 0.00 56 1009.4
20260504080528 43 0.0 0.0 0.00 0.00 0.00 55 1009.4
20260504050516 36 0.0 0.0 0.00 0.00 0.00 71 1009.4
20260504045519 36 0.0 0.0 0.00 0.00 0.00 71 1009.4
20260504044522 35 0.0 0.0 0.00 0.00 0.00 71 1009.5
20260504043525 36 0.0 0.0 0.00 0.00 0.00 71 1009.4
20260504042529 36 0.0 0.0 0.00 0.00 0.00 71 1009.4
20260504041532 36 0.0 0.0 0.00 0.00 0.00 71 1009.4
20260504040537 36 0.0 0.0 0.00 0.00 0.00 71 1009.3
20260504035520 35 0.0 0.0 0.00 0.00 0.00 70 1009.2
20260504034524 35 0.0 0.0 0.00 0.00 0.00 70 1009.2
20260504033527 36 0.0 0.0 0.00 0.00 0.00 69 1009.2
20260504032530 36 0.0 0.0 0.00 0.00 0.00 69 1009.2
20260504031516 36 0.0 0.0 0.00 0.00 0.00 69 1009.2
20260504030519 36 0.0 0.0 0.00 0.00 0.00 68 1009.2
20260504025522 36 0.0 0.0 0.00 0.00 0.00 66 1009.2
20260504024546 37 0.0 0.0 0.00 0.00 0.00 64 1009.0
20260504023543 37 0.0 0.0 0.00 0.00 0.00 64 1009.1
20260504022520 38 0.0 0.0 0.00 0.00 0.00 64 1009.0
20260504021517 38 0.0 0.0 0.00 0.00 0.00 63 1009.0
20260504020535 39 0.0 0.0 0.00 0.00 0.00 61 1008.9
20260504015524 39 0.0 0.0 0.00 0.00 0.00 61 1008.9
20260504014607 40 0.0 0.0 0.00 0.00 0.00 60 1008.7
20260504013530 40 0.0 0.0 0.00 0.00 0.00 59 1008.7
20260504012516 41 0.0 0.0 0.00 0.00 0.00 55 1008.6
20260504011519 42 0.0 0.0 0.00 0.00 0.00 55 1008.5
20260504010522 43 0.0 0.0 0.00 0.00 0.00 52 1008.4
20260504005606 44 0.0 0.0 0.00 0.00 0.00 50 1008.3
20260504004549 45 0.0 0.0 0.00 0.00 0.00 49 1008.1
20260504003532 46 0.0 0.0 0.00 0.00 0.00 49 1008.0
20260504002517 47 0.0 0.0 0.00 0.00 0.00 45 1007.9
20260504001521 48 0.0 0.0 0.00 0.00 0.00 42 1007.7
20260504000524 48 0.0 0.0 0.00 0.00 0.00 42 1007.6
20260503235527 49 281 0.0 3.0 0.00 0.00 0.00 40 1007.5
20260503234551 49 225 0.0 3.0 0.00 0.00 0.00 39 1007.4
20260503233516 50 320 1.0 3.0 0.00 0.00 0.00 38 1007.2
20260503232519 50 9 2.0 5.0 0.00 0.00 0.00 38 1007.1
20260503231523 51 218 1.0 5.0 0.00 0.00 0.00 37 1006.9
20260503230546 51 267 5.0 11.0 0.00 0.00 0.00 36 1006.8
20260503225523 52 205 2.0 10.0 0.00 0.00 0.00 36 1006.7
20260503224520 53 117 2.0 6.0 0.00 0.00 0.00 35 1006.6
20260503223517 53 36 2.0 6.0 0.00 0.00 0.00 36 1006.5
20260503222515 52 0.0 0.0 0.00 0.00 0.00 36 1006.4
20260503221524 52 76 1.0 4.0 0.00 0.00 0.00 36 1006.3
20260503220528 52 57 3.0 5.0 0.00 0.00 0.00 35 1006.3
20260503215531 52 286 4.0 8.0 0.00 0.00 0.00 35 1006.2
20260503213519 53 226 3.0 7.0 0.00 0.00 0.00 34 1006.1
20260503212542 53 260 4.0 9.0 0.00 0.00 0.00 34 1005.7
20260503211526 53 164 2.0 6.0 0.00 0.00 0.00 34 1005.6
20260503210529 54 31 4.0 7.0 0.00 0.00 0.00 34 1005.5
20260503205532 53 325 4.0 7.0 0.00 0.00 0.00 34 1005.3
20260503204517 53 21 3.0 9.0 0.00 0.00 0.00 35 1005.4
20260503203521 53 333 1.0 5.0 0.00 0.00 0.00 35 1005.3
20260503202524 53 217 4.0 6.0 0.00 0.00 0.00 36 1005.1
20260503201528 53 269 3.0 7.0 0.00 0.00 0.00 36 1005.0